{"data":{"norad_id":37834,"intl_designator":"2011-056A","name":"INTELSAT 18 (IS-18)","alt_names":[],"object_type":"PAYLOAD","status":"ACTIVE","operator":null,"country":"ITSO","launch_date":"2011-10-05","launch_site_code":"TYMSC","launch_vehicle":null,"mission":null,"orbit_class":"UNKNOWN","rcs_meters":37.7529,"size_class":null,"mass_kg":null,"dimensions":null,"purposes":["comms"],"wikipedia_slug":null,"has_3d_model":false,"image_url":null,"decayed_at":null,"tle_current":{"epoch":"2026-09-19T20:08:14.763264Z","epoch_age_seconds":71558,"freshness":"FRESH","line1":"1 37834U 11056A   26262.83905976  .00000049  00000+0  00000+0 0  9994","line2":"2 37834   0.0340 260.5275 0002066 283.0714 297.2266  1.00274113 54765","mean_motion":1.00274113,"eccentricity":0.0002066,"inclination_deg":0.034,"raan_deg":260.5275,"arg_perigee_deg":283.0714,"mean_anomaly_deg":297.2266,"bstar":0,"rev_number":5476,"period_min":1436.0635630853,"perigee_km":35777.231252114,"apogee_km":35794.653449702,"semimajor_km":42164.079350908,"source":"CELESTRAK","updated_at":"2026-09-20T09:00:35.519747Z"}}}